Temperature
21 21 21 20 19 18 20 20 21 21 21 21 20 20 19 18 18 17 17 17 17 17 18 18 18 18 17 17 17 17 17 17 17 17 17 17 17 17 17 17 17 17 17 17 18 18 18 18 18
21 21 21 20 18 19 20 20 20 21 21 21 20 20 19 18 17 17 17 17 17 17 18 18 18 18 17 17 17 17 17 17 17 17 17 17 17 17 17 17 17 17 17 17 17 18 17 17 17
21 21 21 18 19 19 20 21 21 22 22 21 20 19 18 18 18 17 17 17 17 17 17 18 18 17 17 17 17 17 17 17 17 17 17 17 17 17 17 17 17 17 17 17 17 17 17 17 17
21 21 21 18 19 20 21 21 21 22 21 21 19 18 18 18 18 17 17 17 18 17 17 18 18 17 17 17 17 17 17 17 17 17 17 17 17 17 17 17 17 17 17 17 17 17 17 17 17
21 21 19 19 20 21 21 22 22 21 21 20 19 18 17 18 18 18 18 18 18 18 17 17 17 17 17 17 17 17 17 17 16 17 17 17 16 16 16 16 16 16 17 17 17 17 17 17 17
22 19 19 19 20 21 21 22 22 21 20 20 19 18 17 17 18 18 18 18 18 18 17 17 17 17 17 17 17 16 16 16 16 16 16 16 16 16 16 16 16 16 16 16 17 17 17 17 17
21 19 19 19 20 21 22 22 22 21 21 20 19 17 17 17 18 18 18 18 17 17 17 17 17 17 17 17 17 16 16 16 16 16 16 16 16 16 16 16 16 16 16 16 16 16 16 16 16
22 19 20 20 20 21 22 23 22 22 21 20 20 18 17 18 18 18 18 17 17 17 17 17 17 17 17 17 16 16 16 16 16 16 16 16 16 16 16 16 16 16 16 16 16 16 16 16 16
22 19 19 20 20 21 22 22 22 21 21 20 20 20 19 18 18 18 17 17 17 17 17 17 17 17 17 17 16 16 16 16 16 16 16 16 16 16 16 16 16 16 16 16 16 16 16 16 16
22 19 21 21 21 21 22 22 22 21 20 19 19 19 19 18 18 18 18 18 18 17 17 17 17 17 17 17 16 16 16 16 16 16 16 16 16 16 16 16 16 16 16 16 16 16 16 16 16
22 20 21 22 23 23 22 22 22 20 19 19 19 19 19 18 18 18 18 18 18 18 17 17 17 17 17 17 17 16 16 16 16 16 16 16 16 16 16 16 16 16 16 16 16 16 16 16 16
22 22 23 23 23 23 22 22 21 21 21 21 20 20 19 19 19 19 18 18 18 18 17 17 17 17 17 17 17 16 16 16 16 16 16 16 16 16 16 16 16 16 16 16 16 16 16 16 16
22 22 23 23 23 23 22 22 21 21 21 21 20 20 19 19 19 19 19 19 18 18 18 17 17 17 17 17 17 17 16 16 16 16 16 16 16 16 16 16 16 16 16 16 16 16 16 16 16
22 22 23 23 23 23 22 21 21 20 21 20 20 20 20 20 19 19 19 19 18 18 18 18 17 17 17 17 17 17 16 16 16 16 16 16 16 16 16 16 16 16 16 16 16 16 16 16 16
23 22 22 22 22 22 22 21 20 21 21 20 20 20 20 20 20 19 19 19 19 18 18 18 17 17 17 17 17 17 17 16 16 16 16 16 16 16 16 16 16 16 16 16 16 16 16 16 15
22 21 20 21 22 22 21 20 20 21 21 20 20 20 20 20 20 20 19 19 19 18 18 18 18 17 17 17 17 17 17 16 16 16 16 16 16 16 16 16 16 16 16 16 16 16 15 15 15
20 20 20 21 22 22 21 20 20 21 21 20 20 20 20 20 20 20 19 19 19 19 18 18 18 17 17 17 17 17 17 16 16 16 16 16 16 16 16 16 16 16 16 16 15 15 15 15 15
20 20 21 21 22 21 20 20 20 21 21 20 20 20 20 20 20 20 19 19 19 19 18 18 18 17 17 17 17 16 16 16 16 16 16 16 16 16 16 16 16 16 16 15 15 15 15 15 15
21 21 21 21 22 22 20 20 20 20 20 20 20 20 20 20 20 20 19 19 19 18 18 18 18 17 17 17 17 16 16 16 16 16 16 16 16 16 16 16 16 15 15 15 15 15 15 15 15
22 21 21 22 23 22 20 20 20 20 20 20 20 20 20 20 19 19 19 19 19 19 18 18 18 17 17 17 17 16 16 16 16 16 16 16 16 16 16 16 15 15 15 15 15 15 15 15 15
22 21 21 21 22 21 21 19 19 20 20 21 21 20 20 20 20 19 19 19 19 19 18 18 18 17 17 17 17 16 16 16 16 16 16 16 16 16 16 15 15 15 15 15 15 15 15 15 15
21 22 22 22 20 19 20 18 19 19 19 19 20 20 20 20 20 19 19 19 19 19 18 18 18 17 17 17 16 16 16 16 16 16 16 16 15 15 15 15 15 15 15 15 15 15 15 15 15
22 22 22 21 20 19 19 18 18 18 19 19 19 20 20 20 20 20 19 19 19 19 18 18 18 17 17 17 16 16 16 16 16 16 16 15 15 15 15 15 15 15 15 15 15 15 15 15 15
22 21 20 18 17 18 19 18 18 18 19 19 19 20 20 20 20 20 19 19 19 19 18 18 18 17 17 17 16 16 16 16 16 16 16 15 15 15 15 15 15 15 15 15 15 15 15 15 15
21 18 17 18 17 17 19 18 18 19 20 20 20 20 20 20 20 19 19 19 19 18 18 18 18 17 17 17 16 16 16 16 16 16 16 15 15 15 15 15 15 15 15 15 15 15 15 15 15
20 19 17 18 17 17 19 18 19 21 21 22 21 21 20 20 20 20 19 19 19 18 18 18 18 17 17 17 16 16 16 16 16 16 16 15 15 15 15 15 15 15 15 15 15 15 15 15 15
20 19 18 17 18 18 18 19 21 21 20 20 20 20 20 20 20 20 19 19 19 19 18 18 18 17 17 17 16 16 16 16 16 16 16 15 15 15 15 15 15 15 15 15 15 15 15 15 15
21 19 17 17 17 17 18 19 18 20 20 19 19 20 20 20 20 20 19 19 19 19 18 18 18 17 17 17 16 16 16 16 16 16 16 16 16 15 15 15 15 15 15 15 15 15 15 15 15
20 20 18 16 16 17 17 18 20 19 20 19 19 20 20 20 20 20 19 19 19 18 18 18 18 17 17 17 16 16 16 16 16 16 16 16 16 16 16 15 15 15 15 15 15 15 15 15 15
20 20 18 17 17 16 16 17 20 20 20 20 20 20 20 20 20 20 19 19 19 18 18 18 17 17 17 17 16 16 16 16 16 16 16 16 16 16 16 16 15 15 15 15 15 15 15 15 15
Wind_Speed
2 1 3 3 4 5 3 2 1 3 4 5 9 9 8 6 5 5 1 5 6 5 6 8 9 10 11 11 11 11 11 10 11 11 11 12 12 12 13 12 12 12 11 11 11 11 10 10 10
1 1 3 4 5 4 2 1 3 4 6 7 8 8 8 6 4 5 3 6 7 6 6 8 10 10 11 11 11 11 11 10 10 11 11 11 11 11 12 11 11 11 11 10 10 10 10 9 9
1 1 3 4 4 3 3 1 3 4 6 5 5 6 5 4 3 3 4 8 7 6 7 8 10 10 11 11 11 11 10 10 10 10 10 11 11 11 11 10 10 10 10 10 9 9 9 8 8
2 4 4 5 6 2 4 3 4 6 6 6 6 6 4 3 3 5 8 8 8 5 6 8 10 10 11 11 11 11 10 10 10 10 10 10 10 10 10 10 10 10 10 9 9 8 8 7 8
3 4 5 4 4 2 3 4 5 7 4 5 7 6 4 3 6 9 9 8 8 5 5 7 10 11 11 12 11 11 10 10 9 9 10 10 10 10 10 10 10 10 9 8 8 7 7 7 7
4 4 5 4 3 2 3 6 8 9 7 7 7 6 3 2 6 7 8 8 7 6 5 7 10 11 11 11 11 10 10 10 10 10 10 9 9 9 9 9 9 9 8 8 7 7 6 7 8
4 4 3 5 4 3 3 4 6 7 6 5 6 6 4 3 5 6 7 7 6 6 5 5 6 9 10 10 10 9 9 9 9 9 9 9 8 8 8 9 9 8 8 7 6 6 6 7 7
4 4 3 3 4 2 2 3 5 7 6 5 5 7 5 6 5 5 5 5 6 5 4 4 5 6 6 7 8 8 8 8 8 7 7 7 7 7 7 7 7 7 6 6 5 6 6 7 8
4 5 3 3 4 3 3 5 4 5 7 5 4 5 7 9 7 6 5 4 5 5 4 4 4 5 6 5 6 7 6 6 6 6 6 5 5 4 4 5 5 5 5 5 5 5 6 7 8
5 4 2 3 5 5 4 5 4 5 7 5 5 5 8 8 8 7 6 5 5 5 5 4 5 5 5 5 5 4 4 4 4 4 4 4 4 3 3 3 4 4 4 4 4 4 4 6 6
4 4 3 3 4 5 5 4 4 8 4 6 9 10 9 8 8 7 6 6 5 6 5 5 5 5 5 4 4 3 3 3 4 4 5 5 4 3 3 2 2 2 2 3 3 3 4 4 4
4 3 4 3 4 4 4 4 4 5 6 9 12 12 10 10 9 8 7 6 5 5 5 5 5 4 5 5 4 4 3 3 3 3 5 6 4 3 2 1 1 1 2 3 3 3 3 4 5
4 3 4 5 5 4 5 5 5 4 7 10 11 11 10 9 8 7 7 6 5 5 5 6 5 5 4 3 3 3 3 3 3 4 4 6 4 2 2 1 1 2 3 4 4 5 5 4 5
4 3 3 3 4 4 6 4 5 5 9 10 10 10 9 9 8 6 6 6 6 6 6 5 5 5 5 3 3 3 3 4 3 4 4 6 6 4 3 2 2 2 4 5 6 6 5 5 6
4 3 2 1 3 3 6 2 4 8 10 11 9 9 8 8 8 8 8 8 7 7 6 6 6 5 5 4 4 3 4 5 4 4 6 7 7 6 4 3 2 3 5 7 7 7 6 6 6
3 3 0 4 4 4 6 4 6 9 10 10 8 8 8 7 8 8 8 7 7 7 6 6 6 6 5 4 4 4 4 5 4 5 6 7 7 7 5 3 2 5 7 6 5 4 5 5 5
1 2 4 4 5 5 5 5 6 8 10 9 8 8 8 6 6 6 7 9 8 7 7 6 6 6 5 5 4 4 5 5 4 5 5 5 6 7 6 4 4 6 5 4 4 4 4 5 5
4 3 3 5 5 6 5 6 6 8 9 9 8 8 8 8 7 6 7 8 8 7 7 7 6 6 6 4 4 3 3 3 4 4 4 5 6 7 7 5 5 6 4 4 4 5 4 4 4
4 2 3 5 5 5 6 6 7 9 8 8 9 9 9 9 7 6 7 8 7 7 7 6 7 5 5 4 3 3 2 1 2 3 4 5 6 6 6 4 4 4 4 3 5 4 5 3 4
3 1 2 3 2 4 4 6 6 8 11 11 12 11 11 8 7 7 6 7 8 7 6 6 7 6 5 4 3 3 3 2 1 2 3 5 5 6 6 5 3 3 4 4 4 4 3 2 2
2 3 3 3 1 2 1 4 4 5 5 7 9 10 11 13 12 10 8 7 8 8 8 8 7 6 6 5 4 4 4 3 2 2 1 2 4 5 6 5 5 4 4 4 3 4 5 3 1
3 4 3 2 2 3 1 2 7 5 5 7 9 9 11 12 11 10 9 8 9 8 8 7 7 6 6 6 6 6 4 3 2 2 1 1 2 4 5 6 5 4 3 4 3 4 3 4 2
5 3 1 2 3 1 1 2 7 2 5 8 9 10 12 13 13 12 11 10 9 8 8 7 7 6 5 6 7 6 4 3 2 1 1 1 1 2 4 5 5 4 3 3 3 4 3 3 3
2 4 6 5 5 2 4 4 6 4 8 8 9 10 12 13 12 11 9 8 7 7 7 7 7 6 6 6 6 7 6 5 4 2 2 1 0 1 2 4 4 4 3 3 3 4 4 3 2
5 6 4 5 3 5 3 3 7 7 6 9 11 11 11 12 12 11 10 10 9 8 8 8 8 6 6 6 6 6 6 6 6 5 4 3 1 1 1 2 3 3 3 3 3 3 3 3 3
3 8 6 4 3 5 3 3 6 6 3 5 7 8 10 11 12 12 13 12 11 10 9 8 8 6 6 6 6 5 5 4 4 4 4 4 3 2 2 3 3 3 4 4 4 3 2 2 3
4 3 7 6 2 2 4 3 5 4 4 4 5 7 9 11 12 12 11 11 11 10 9 9 9 7 6 6 6 5 5 5 5 4 4 3 2 3 3 3 3 3 3 4 4 3 2 3 2
6 6 5 4 3 2 4 3 4 3 1 3 5 7 8 9 9 10 11 11 10 10 8 8 8 7 6 7 6 5 5 5 5 4 4 4 3 3 5 4 3 3 3 4 4 3 3 4 2
2 3 4 4 5 4 2 5 5 7 5 6 6 7 8 10 11 11 11 10 9 8 8 8 8 6 6 6 5 5 5 5 4 4 4 4 3 4 4 4 4 4 3 4 4 3 4 4 3
6 6 6 4 3 4 3 6 5 6 5 6 6 6 7 9 9 10 10 9 9 9 9 8 8 7 6 6 6 6 6 5 4 4 4 4 3 3 4 4 4 4 4 4 4 4 4 4 3
Wind_Direction
301 2 92 60 55 55 52 11 77 55 58 64 72 79 80 60 78 121 159 112 118 114 104 98 104 108 107 109 108 105 104 102 102 103 102 102 104 103 101 99 98 98 97 96 94 90 87 86 84
13 77 77 62 77 74 39 353 77 77 128 119 77 72 74 70 78 105 101 120 119 113 105 102 106 111 110 109 107 106 105 103 104 106 106 105 104 104 103 101 99 98 97 96 93 89 86 82 80
265 158 87 70 80 115 131 159 109 82 93 96 76 51 64 83 92 118 133 131 116 109 106 109 114 117 114 111 110 108 106 104 104 107 107 107 107 106 105 103 102 102 100 98 95 91 87 80 74
68 52 56 74 82 91 142 156 116 96 69 61 93 68 55 38 116 130 133 130 117 110 112 118 121 122 119 116 114 113 112 109 106 107 109 108 110 110 109 109 107 106 104 100 97 93 88 82 73
70 71 63 75 78 75 93 98 92 89 78 75 89 89 66 29 102 122 134 136 127 126 126 125 127 124 120 118 115 112 112 112 109 108 112 112 113 115 114 112 111 108 105 101 97 93 88 81 72
52 66 82 95 92 83 77 91 86 88 105 107 98 103 99 130 121 134 141 143 142 141 137 128 129 128 122 119 118 117 115 113 110 108 111 113 115 117 118 117 115 111 107 105 97 91 84 73 68
97 81 102 125 109 86 113 105 104 110 104 106 116 105 131 169 161 146 143 146 142 141 135 130 128 127 125 125 124 122 120 117 115 114 114 116 117 120 122 122 120 118 115 110 101 92 81 73 68
124 96 81 99 116 119 131 101 108 110 105 109 111 131 165 193 170 136 129 133 138 142 145 149 141 134 131 133 134 132 128 125 124 121 119 120 120 119 121 121 124 123 121 116 106 92 81 77 70
91 77 99 144 141 152 125 97 75 72 90 70 78 137 162 160 143 123 112 113 140 154 168 166 161 158 154 154 143 136 131 129 128 127 126 116 107 113 126 133 131 129 125 123 114 96 79 70 64
84 99 134 161 154 151 134 123 120 91 85 84 82 97 131 143 144 141 144 148 157 171 182 175 178 184 180 171 150 145 136 130 129 134 139 135 136 137 137 140 139 133 129 121 113 91 76 64 59
104 134 120 97 121 119 113 102 102 120 124 159 152 152 153 152 153 159 169 169 170 172 173 172 181 185 179 162 156 155 144 136 140 148 152 140 127 120 120 99 78 80 92 88 80 71 61 69 69
90 108 124 115 94 98 115 112 95 131 172 169 161 159 159 161 168 172 173 174 164 155 166 163 168 161 163 157 157 156 150 147 157 159 149 136 123 119 117 107 84 79 85 83 79 81 76 77 78
97 126 128 129 111 115 111 115 118 139 150 145 148 156 164 172 176 178 175 170 158 146 148 153 153 147 143 130 144 139 150 160 166 151 150 144 132 125 118 102 82 87 106 106 98 88 82 75 79
152 139 127 132 128 133 124 129 115 168 153 149 151 161 169 172 172 167 165 164 159 154 147 145 146 143 135 130 123 124 131 141 145 147 137 136 135 133 122 105 89 91 105 107 106 101 93 83 84
122 101 71 162 158 152 118 111 178 178 162 159 164 168 170 172 167 167 170 165 163 160 150 143 149 139 130 126 118 116 118 113 109 115 121 125 130 127 118 107 94 101 111 106 98 91 88 89 86
73 80 206 242 183 172 133 214 221 176 162 167 176 174 172 175 173 171 164 159 159 154 145 144 140 133 127 123 119 115 107 99 94 105 114 115 119 119 109 103 106 114 112 106 99 94 89 84 83
47 193 220 247 201 170 162 221 220 184 169 177 187 182 177 179 177 169 159 158 161 154 142 134 129 130 128 117 111 107 97 91 93 99 110 117 118 117 110 108 112 110 103 103 115 101 105 102 93
225 222 223 223 213 174 189 227 215 194 183 185 187 184 181 180 187 174 159 157 156 147 140 140 133 131 125 104 91 78 70 68 78 91 112 120 118 119 117 114 110 107 99 96 107 108 92 104 105
216 224 242 242 220 179 202 227 220 200 193 189 189 187 185 183 183 170 158 152 147 142 139 142 141 146 132 116 111 106 93 69 61 71 98 108 115 122 119 114 107 110 112 124 125 114 101 99 109
231 247 264 288 236 181 213 245 235 199 202 196 191 186 184 177 172 175 164 155 154 154 151 149 152 156 152 147 144 142 133 112 104 74 82 104 115 122 130 132 131 124 119 117 120 121 116 120 121
256 203 215 231 310 25 92 316 276 246 213 201 194 183 180 178 178 178 171 167 159 158 162 162 165 159 156 146 119 96 72 52 44 43 49 75 116 129 134 140 137 131 131 137 140 140 139 146 169
263 241 197 159 88 293 123 274 280 250 220 207 202 186 182 182 179 178 175 171 173 172 161 158 161 153 154 145 138 140 140 149 189 190 173 76 104 125 136 138 137 140 140 144 151 143 146 141 153
222 235 173 152 129 331 302 191 285 252 221 221 205 192 184 180 179 180 179 178 177 164 155 156 153 148 152 151 147 143 150 169 178 171 139 99 73 108 125 134 135 139 143 146 139 131 134 145 156
174 50 40 52 72 319 248 186 276 241 220 213 201 192 184 179 179 178 175 164 162 153 150 152 153 154 155 152 150 153 162 164 153 162 164 160 71 68 120 132 132 137 139 143 145 138 137 145 136
86 82 35 9 11 266 260 178 254 253 231 201 192 190 182 176 174 172 167 166 163 158 157 157 153 158 159 154 159 164 167 168 170 174 173 169 163 171 185 137 133 136 139 139 135 132 143 146 138
152 134 150 187 228 284 323 229 267 277 228 178 175 172 168 171 175 176 176 172 168 166 163 161 158 162 166 161 167 168 166 168 175 179 170 175 182 189 174 147 141 140 136 131 124 119 136 129 137
141 165 165 146 213 274 292 289 322 9 58 105 134 146 166 176 177 177 175 173 169 169 170 166 164 166 173 174 168 168 172 172 175 175 167 173 176 168 152 142 134 130 125 125 119 115 119 117 119
159 154 104 121 161 252 283 259 235 230 184 146 154 167 178 176 175 174 175 176 174 172 173 167 163 170 177 177 179 177 180 176 170 163 167 167 168 155 145 144 137 123 114 115 116 118 121 117 113
148 133 124 141 161 164 247 271 226 201 190 181 187 182 174 176 179 178 177 175 171 167 167 168 167 166 173 176 176 172 177 175 165 163 171 170 166 161 158 155 146 138 136 124 123 122 117 115 102
176 175 149 159 224 177 183 264 268 193 190 183 185 183 178 176 176 174 170 168 168 170 171 175 174 175 181 178 170 171 170 169 166 171 174 167 169 175 167 156 149 151 146 139 140 141 132 128 126
Height
1518 1517 1517 1518 1520 1528 1532 1527 1521 1521 1521 1522 1521 1522 1526 1529 1532 1539 1536 1534 1534 1533 1532 1532 1531 1531 1531 1530 1530 1530 1531 1531 1531 1532 1532 1532 1533 1533 1534 1534 1535 1536 1536 1536 1537 1537 1537 1537 1538
1518 1518 1519 1518 1527 1539 1536 1526 1524 1521 1522 1522 1523 1525 1527 1531 1533 1534 1534 1534 1535 1534 1533 1532 1532 1531 1531 1531 1531 1531 1531 1532 1532 1532 1533 1533 1533 1534 1534 1535 1535 1536 1537 1537 1537 1538 1538 1538 1539
1518 1518 1519 1521 1530 1537 1534 1526 1522 1521 1522 1522 1526 1528 1530 1533 1534 1534 1535 1535 1535 1535 1534 1533 1532 1532 1531 1531 1532 1532 1532 1532 1532 1533 1533 1533 1534 1534 1535 1535 1536 1537 1537 1538 1538 1539 1539 1539 1540
1518 1519 1520 1527 1532 1529 1526 1524 1522 1522 1524 1525 1527 1531 1534 1535 1535 1536 1536 1537 1536 1535 1535 1534 1533 1533 1532 1532 1532 1532 1533 1533 1533 1533 1534 1534 1534 1535 1535 1536 1536 1537 1538 1538 1539 1540 1540 1540 1540
1518 1519 1525 1533 1531 1527 1523 1522 1522 1523 1525 1528 1528 1533 1536 1537 1537 1537 1537 1538 1537 1536 1536 1535 1534 1534 1534 1533 1533 1534 1534 1534 1534 1534 1534 1535 1535 1536 1536 1537 1537 1538 1538 1539 1540 1540 1540 1541 1541
1519 1521 1533 1539 1533 1527 1525 1524 1524 1526 1528 1530 1531 1534 1538 1539 1538 1539 1538 1538 1538 1538 1537 1537 1536 1536 1536 1535 1535 1535 1535 1535 1536 1536 1536 1536 1537 1537 1537 1538 1538 1538 1539 1540 1540 1541 1541 1542 1542
1521 1525 1532 1535 1534 1530 1526 1525 1525 1527 1529 1531 1532 1535 1538 1539 1540 1540 1540 1540 1539 1539 1539 1538 1538 1538 1537 1537 1537 1537 1537 1537 1537 1537 1537 1538 1538 1538 1538 1539 1539 1539 1540 1541 1541 1542 1542 1543 1543
1520 1525 1532 1533 1534 1531 1526 1526 1527 1527 1530 1532 1532 1534 1537 1539 1540 1541 1541 1541 1541 1541 1541 1540 1540 1540 1539 1539 1539 1539 1539 1539 1539 1539 1539 1539 1539 1540 1540 1540 1540 1540 1541 1541 1542 1543 1543 1543 1544
1520 1529 1536 1533 1532 1530 1526 1527 1529 1530 1530 1532 1533 1534 1536 1538 1540 1541 1541 1542 1541 1542 1542 1542 1541 1541 1541 1541 1541 1541 1541 1540 1540 1541 1541 1541 1541 1541 1541 1542 1542 1542 1542 1543 1543 1543 1544 1544 1545
1521 1532 1530 1526 1526 1527 1527 1527 1529 1531 1532 1534 1535 1536 1537 1539 1540 1541 1541 1542 1542 1542 1542 1542 1543 1542 1542 1542 1542 1542 1542 1542 1542 1542 1542 1542 1543 1543 1543 1543 1543 1543 1544 1544 1544 1545 1545 1546 1546
1522 1527 1526 1525 1525 1526 1527 1528 1529 1531 1534 1534 1535 1536 1538 1539 1540 1541 1542 1542 1542 1543 1543 1543 1543 1543 1544 1544 1544 1544 1544 1544 1544 1544 1544 1544 1544 1544 1544 1544 1544 1545 1545 1545 1546 1546 1546 1547 1547
1523 1524 1524 1525 1525 1526 1527 1529 1530 1530 1532 1533 1534 1536 1537 1539 1540 1541 1542 1543 1543 1543 1544 1544 1544 1545 1545 1545 1545 1545 1545 1545 1545 1545 1545 1545 1545 1545 1546 1546 1546 1546 1546 1546 1547 1547 1547 1548 1548
1524 1525 1525 1525 1526 1527 1528 1529 1530 1531 1532 1533 1535 1536 1537 1539 1540 1541 1542 1543 1543 1544 1544 1545 1545 1546 1546 1546 1546 1546 1546 1546 1546 1546 1546 1546 1546 1546 1547 1547 1547 1547 1547 1548 1548 1548 1548 1549 1549
1524 1524 1525 1525 1526 1527 1528 1530 1530 1532 1532 1534 1535 1536 1537 1538 1539 1541 1542 1542 1543 1544 1545 1545 1546 1546 1547 1547 1547 1547 1547 1547 1547 1547 1547 1547 1547 1547 1548 1548 1548 1548 1549 1549 1549 1550 1550 1550 1550
1523 1526 1527 1526 1526 1527 1529 1532 1530 1530 1532 1533 1534 1535 1537 1538 1539 1540 1541 1542 1543 1544 1545 1545 1546 1547 1547 1548 1548 1548 1548 1548 1548 1548 1548 1548 1548 1549 1549 1549 1549 1549 1550 1550 1551 1551 1551 1551 1551
1525 1530 1535 1528 1526 1526 1531 1538 1529 1529 1531 1532 1533 1535 1536 1537 1538 1540 1541 1542 1543 1544 1545 1546 1546 1547 1547 1548 1548 1549 1549 1549 1549 1549 1549 1549 1550 1550 1550 1550 1550 1551 1551 1551 1552 1552 1553 1553 1553
1532 1538 1536 1530 1524 1525 1529 1533 1527 1528 1529 1531 1532 1533 1535 1537 1538 1539 1540 1542 1543 1544 1545 1545 1546 1547 1547 1548 1549 1549 1549 1549 1549 1550 1550 1550 1551 1551 1551 1551 1551 1552 1552 1552 1553 1553 1554 1554 1554
1537 1536 1533 1531 1523 1524 1528 1528 1525 1526 1527 1528 1530 1532 1533 1535 1537 1538 1539 1541 1542 1543 1544 1545 1546 1547 1548 1548 1549 1549 1550 1550 1550 1550 1551 1551 1551 1552 1552 1552 1552 1553 1553 1553 1554 1554 1555 1555 1555
1526 1529 1531 1526 1519 1523 1527 1526 1524 1524 1525 1527 1528 1530 1531 1533 1535 1537 1538 1540 1542 1543 1544 1545 1546 1547 1547 1548 1549 1549 1550 1550 1551 1551 1551 1551 1552 1552 1552 1553 1553 1554 1554 1554 1555 1555 1555 1556 1556
1524 1529 1529 1524 1518 1521 1526 1526 1521 1521 1522 1522 1525 1527 1529 1531 1534 1536 1538 1539 1540 1542 1543 1545 1546 1547 1547 1548 1549 1550 1550 1551 1551 1551 1552 1552 1552 1553 1553 1553 1554 1554 1555 1555 1556 1556 1556 1557 1557
1524 1527 1527 1526 1521 1521 1525 1530 1524 1520 1519 1521 1522 1524 1526 1528 1531 1534 1536 1538 1539 1541 1542 1544 1545 1546 1547 1548 1549 1550 1550 1551 1551 1552 1552 1552 1553 1553 1553 1554 1554 1554 1555 1555 1556 1556 1557 1557 1558
1527 1518 1519 1522 1530 1537 1531 1546 1529 1521 1519 1518 1519 1521 1523 1526 1529 1531 1534 1536 1538 1540 1541 1543 1544 1545 1546 1548 1549 1549 1550 1550 1551 1552 1552 1552 1553 1553 1554 1554 1555 1555 1555 1556 1556 1557 1557 1557 1558
1519 1515 1517 1521 1529 1537 1534 1542 1534 1522 1521 1517 1516 1518 1520 1523 1526 1529 1532 1534 1537 1539 1540 1542 1543 1545 1546 1547 1548 1549 1549 1550 1551 1551 1552 1552 1553 1553 1554 1554 1555 1555 1555 1556 1556 1557 1557 1557 1558
1513 1517 1522 1529 1536 1548 1537 1542 1538 1524 1516 1512 1513 1515 1518 1521 1524 1527 1531 1533 1536 1538 1539 1541 1543 1544 1545 1546 1547 1548 1549 1549 1550 1551 1551 1552 1552 1553 1554 1554 1555 1555 1555 1556 1556 1556 1557 1557 1557
1517 1532 1549 1551 1556 1551 1533 1536 1532 1512 1506 1506 1508 1511 1514 1518 1522 1525 1528 1531 1534 1536 1538 1540 1541 1543 1544 1546 1547 1547 1548 1549 1550 1550 1551 1552 1552 1553 1553 1554 1554 1555 1555 1556 1556 1556 1557 1557 1557
1520 1529 1550 1559 1559 1550 1534 1536 1522 1506 1503 1504 1506 1509 1513 1516 1519 1523 1525 1528 1531 1534 1536 1538 1540 1542 1543 1545 1546 1547 1547 1548 1549 1550 1550 1551 1552 1552 1553 1554 1554 1555 1555 1556 1556 1556 1557 1557 1557
1521 1527 1528 1542 1544 1549 1541 1528 1515 1507 1506 1506 1508 1510 1512 1515 1518 1520 1524 1526 1529 1532 1535 1537 1538 1540 1542 1544 1545 1546 1547 1548 1548 1549 1550 1551 1551 1552 1553 1553 1554 1555 1555 1556 1556 1556 1557 1557 1557
1512 1518 1532 1541 1552 1556 1544 1535 1529 1515 1512 1509 1509 1510 1511 1514 1516 1519 1522 1524 1528 1530 1533 1535 1537 1539 1541 1542 1543 1544 1546 1547 1548 1549 1549 1550 1551 1552 1552 1553 1554 1554 1555 1555 1556 1556 1556 1557 1557
1516 1520 1526 1537 1542 1552 1552 1540 1512 1510 1508 1508 1508 1508 1510 1512 1514 1517 1519 1522 1526 1529 1531 1533 1535 1537 1539 1541 1542 1543 1544 1546 1547 1548 1549 1550 1550 1551 1552 1553 1553 1554 1554 1555 1556 1556 1556 1556 1557
1510 1515 1524 1538 1540 1541 1546 1537 1504 1504 1504 1505 1506 1508 1509 1510 1512 1515 1518 1521 1524 1527 1529 1532 1534 1536 1537 1539 1540 1542 1543 1545 1546 1547 1548 1549 1550 1550 1551 1552 1553 1554 1554 1555 1555 1555 1556 1556 1556